Content
SEND FEEDBACK

Daily
Averages
Monthly
Summary
United States of America

GAMALIEL, KENTUCKY


Home > North America > United States > Kentucky
Elevation: 26 meters     Latitude: 36 38N     Longitude: 085 48W

WEATHER
 
SELECT A DAY
Number of Records: 232,122;   Date Range: 10/21/04 - 11/24/14
 
SHARE

PRINT THIS DATA

[ ← Previous Day ]
WEATHER ALMANAC - 13 FEBRUARY, 2013
[ Next Day → ]
[ °F ]   °C
Weather ElementAverageHighLow
Temperature3.5 °C5.8 °C (12:35 am)1.3 °C (11:55 pm)
Dewpoint-5.9 °C-1.2 °C (10:55 am)-11.2 °C (12:35 am)
Humidity52.4 %77 % (10:55 am)29 % (12:35 am)
Barometer1011.2 hPa1015.6 hPa (11:15 pm)1006.8 hPa (4:15 am)
Wind Speed9.7 km/h22.2 km/h (9:55 am)
Wind Gust35.2 km/h (9:55 am)
Weather ElementAverage
Visibility14 km
Wind DirectionSSW (189.6 °)

Weather ElementTotal
Precipitation4.83 mm
Heating Degree Days14.8 (Base 18.3)
Averaged from 70 records on 13 February, 2013
WEATHER CONDITIONS BREAKOUT
WIND DIRECTION BREAKOUT
WEATHER BY HOUR - 13 FEBRUARY, 2013
[ °F ]   °C
Local TimeTemperatureDewpointHumidityBarometerVisibilityWind DirectionWind SpeedGust SpeedPrecipitationEventsConditions
12:35 AM5.8 °C-11.2 °C29 %1010.2 hPa16.1 kmNE (50°)5.6 km/hOvercast
12:55 AM5.7 °C-11.1 °C29 %1009.8 hPa16.1 kmNE (50°)5.6 km/hOvercast
1:15 AM5.7 °C-10.9 °C30 %1009.5 hPa16.1 kmNE (50°)7.4 km/hOvercast
1:35 AM5.7 °C-11.2 °C29 %1009.1 hPa16.1 kmNE (50°)7.4 km/hOvercast
1:55 AM5.7 °C-11.2 °C29 %1009.5 hPa16.1 kmNNE (30°)5.6 km/hOvercast
2:15 AM5.6 °C-11 °C30 %1009.1 hPa16.1 kmCalmRainLight Rain
2:35 AM5.2 °C-9.3 °C35 %1008.5 hPa16.1 kmENE (60°)7.4 km/hRainRain
2:55 AM5 °C-8.6 °C37 %1007.8 hPa16.1 kmNE (40°)11.1 km/hOvercast
3:15 AM5 °C-9.1 °C36 %1007.8 hPa16.1 kmNE (40°)9.3 km/hOvercast
3:35 AM5 °C-9.1 °C36 %1007.8 hPa16.1 kmNE (40°)7.4 km/hOvercast
3:55 AM5.2 °C-10 °C33 %1007.5 hPa16.1 kmNE (40°)7.4 km/hRainRain
4:15 AM5.2 °C-10.8 °C31 %1006.8 hPa16.1 kmNNE (30°)9.3 km/hOvercast
4:35 AM5.3 °C-11.1 °C30 %1007.1 hPa16.1 kmCalmOvercast
4:55 AM5.1 °C-10.2 °C33 %1007.5 hPa16.1 kmNorth (10°)7.4 km/hRainLight Rain
5:15 AM4.8 °C-9.1 °C36 %1007.1 hPa16.1 kmNorth (10°)9.3 km/hRainRain
5:35 AM4.6 °C-8.4 °C39 %1007.5 hPa16.1 kmNorth (350°)13 km/hRainLight Rain
5:55 AM4.2 °C-7.8 °C42 %1007.8 hPa16.1 kmNorth (10°)16.7 km/hRainLight Rain
6:15 AM3.8 °C-7.2 °C45 %1007.8 hPa11.3 kmNorth (10°)18.5 km/h29.6 km/hRainLight Rain
6:35 AM3.3 °C-6.3 °C50 %1008.5 hPa11.3 kmNorth (10°)9.3 km/h25.9 km/h0.51 mmRainLight Rain
6:55 AM3 °C-5.9 °C52 %1008.8 hPa11.3 kmNorth (360°)11.1 km/h0.76 mmRainLight Rain
7:15 AM3 °C-5.9 °C52 %1008.8 hPa8 kmNorth (10°)16.7 km/h0.25 mmRainLight Rain
7:35 AM3 °C-5.8 °C53 %1008.1 hPa8 kmNE (50°)11.1 km/h0.76 mmRainLight Rain
7:55 AM2.8 °C-5.1 °C56 %1008.5 hPa11.3 kmNorth (10°)14.8 km/h0.76 mmRainLight Rain
8:15 AM2.6 °C-3.3 °C65 %1008.1 hPa8 kmNNE (20°)11.1 km/hRainLight Rain
8:35 AM2.7 °C-1.7 °C73 %1008.1 hPa8 kmNorth (10°)13 km/hRainLight Rain
8:55 AM2.8 °C-2.8 °C67 %1008.5 hPa8 kmNorth (360°)16.7 km/hRainLight Rain
9:15 AM2.8 °C-3 °C66 %1009.1 hPa8 kmNorth (350°)16.7 km/h0.25 mmRainLight Rain
9:35 AM2.8 °C-3.4 °C64 %1009.5 hPa11.3 kmNNW (330°)18.5 km/h27.8 km/h0.25 mmRainLight Rain
9:55 AM2.7 °C-2.7 °C68 %1010.2 hPa4.8 kmNorth (350°)22.2 km/h35.2 km/h0.25 mmRainLight Rain
10:15 AM2.3 °C-2.2 °C72 %1010.2 hPa6.4 kmNNW (340°)18.5 km/h25.9 km/h0.25 mmRainLight Rain
10:35 AM2.2 °C-1.7 °C76 %1010.8 hPa6.4 kmNNW (330°)11.1 km/h0.25 mmRainRain
10:55 AM2.4 °C-1.2 °C77 %1010.8 hPa6.4 kmNNW (340°)14.8 km/h0.51 mmRainLight Rain
11:15 AM2.5 °C-2 °C72 %1010.5 hPa8 kmNorth (350°)14.8 km/hRainLight Rain
11:35 AM2.7 °C-2.2 °C70 %1010.8 hPa11.3 kmNorth (360°)20.4 km/h27.8 km/hRainLight Rain
11:55 AM2.7 °C-2.9 °C67 %1010.8 hPa11.3 kmNNW (330°)13 km/hRainLight Rain
12:15 PM2.5 °C-2.5 °C70 %1011.2 hPa11.3 kmNNW (340°)16.7 km/hRainLight Rain
12:35 PM2.5 °C-3.9 °C63 %1011.5 hPa11.3 kmNNW (340°)16.7 km/hRainLight Rain
12:55 PM2.5 °C-3.5 °C65 %1011.5 hPa11.3 kmNNW (340°)13 km/hRainLight Rain
1:15 PM2.5 °C-3.1 °C67 %1011.5 hPa11.3 kmNNW (330°)11.1 km/hRainLight Rain
1:35 PM2.8 °C-4.7 °C58 %1011.5 hPa16.1 kmNNW (340°)9.3 km/hOvercast
1:55 PM3.1 °C-5.2 °C55 %1011.5 hPa16.1 kmNNW (340°)9.3 km/hOvercast
2:15 PM3.2 °C-5.5 °C53 %1011.5 hPa16.1 kmWNW (290°)5.6 km/hOvercast
2:35 PM3.5 °C-5.3 °C53 %1011.5 hPa16.1 kmNW (320°)7.4 km/hOvercast
2:55 PM3.8 °C-5.5 °C51 %1011.5 hPa16.1 kmWest (260°)7.4 km/hOvercast
3:15 PM3.8 °C-5.8 °C50 %1011.9 hPa16.1 kmWest (260°)7.4 km/hOvercast
3:35 PM3.7 °C-5.8 °C50 %1011.9 hPa16.1 kmWest (270°)5.6 km/hOvercast
3:55 PM3.8 °C-5.9 °C50 %1011.9 hPa16.1 kmWSW (250°)7.4 km/hOvercast
4:15 PM4 °C-5.8 °C49 %1012.5 hPa16.1 kmWest (280°)7.4 km/hOvercast
4:35 PM3.8 °C-5.7 °C50 %1012.5 hPa16.1 kmWSW (250°)9.3 km/hOvercast
4:55 PM3.7 °C-5.7 °C51 %1012.9 hPa16.1 kmWest (260°)11.1 km/hOvercast
5:15 PM3.6 °C-5.5 °C52 %1012.9 hPa16.1 kmWSW (250°)9.3 km/hOvercast
5:35 PM3.5 °C-5.5 °C52 %1013.2 hPa16.1 kmWSW (250°)7.4 km/hOvercast
5:55 PM3.5 °C-5.3 °C53 %1013.5 hPa16.1 kmWSW (240°)7.4 km/hOvercast
6:15 PM3.5 °C-5.1 °C54 %1013.5 hPa16.1 kmSW (230°)11.1 km/hOvercast
6:35 PM3.5 °C-5 °C54 %1013.9 hPa16.1 kmSW (230°)7.4 km/hOvercast
6:55 PM3.5 °C-5 °C54 %1013.9 hPa16.1 kmSW (220°)7.4 km/hOvercast
7:15 PM3.4 °C-5 °C55 %1014.2 hPa16.1 kmSW (230°)7.4 km/hOvercast
7:35 PM3.4 °C-5 °C55 %1014.2 hPa16.1 kmSW (230°)7.4 km/hOvercast
7:55 PM3.3 °C-4.9 °C55 %1014.6 hPa16.1 kmWSW (250°)7.4 km/hOvercast
8:15 PM3.3 °C-5 °C55 %1014.6 hPa16.1 kmWSW (240°)7.4 km/hOvercast
8:35 PM3.2 °C-5 °C55 %1014.6 hPa16.1 kmSW (230°)9.3 km/hOvercast
8:55 PM3 °C-5 °C56 %1014.9 hPa16.1 kmSSW (200°)5.6 km/hOvercast
9:15 PM2.8 °C-5.2 °C56 %1014.9 hPa16.1 kmCalmOvercast
9:35 PM2.7 °C-5.1 °C57 %1015.2 hPa16.1 kmSW (220°)5.6 km/hOvercast
9:55 PM2.6 °C-5.2 °C57 %1014.9 hPa16.1 kmCalmMostly Cloudy
10:15 PM2.2 °C-5.5 °C57 %1014.9 hPa16.1 kmSouth (190°)5.6 km/hScattered Clouds
10:35 PM2 °C-5.6 °C58 %1015.2 hPa16.1 kmSSW (210°)5.6 km/hClear
10:55 PM1.7 °C-5.8 °C58 %1015.2 hPa16.1 kmSSW (200°)5.6 km/hClear
11:15 PM1.6 °C-5.7 °C59 %1015.6 hPa16.1 kmSSW (200°)7.4 km/hClear
11:55 PM1.3 °C-3.6 °C70 %1015.6 hPa16.1 kmSSW (200°)5.6 km/hClear
Hourly data recorded from KGLW, located 0 kilometers away from Gamaliel, Kentucky







STORIES FROM OUR PARTNERS